When you browse on this site, cookies collect data to enhance your experience and personalize the content and advertising you see.
Visit our Privacy Policy to learn more. By continuing to use the site, you agree to this use of cookies and data.
  • In Sweden
  • List of Countries
  • For 7 days
  • Water Temperature
  • Weather Map
  • Weather Widgets
  • user-avatar
    Login

    Hourly Weather Cenon

    Today, 22 October, Tuesday

    Time Temperature Precipitation Wind Pressure Humidity
    00:00 +11°C° 0 mm 1 mps 763 mmHg 84%
    01:00 +11°C° 0 mm 1 mps 763 mmHg 85%
    02:00 +10°C° 0 mm 1 mps 762 mmHg 86%
    03:00 +10°C° 0 mm 1 mps 762 mmHg 87%
    04:00 +10°C° 0 mm 1 mps 762 mmHg 87%
    05:00 +10°C° 0 mm 1 mps 762 mmHg 86%
    06:00 +10°C° 0 mm 1 mps 762 mmHg 86%
    07:00 +10°C° 0 mm 2 mps 762 mmHg 82%
    08:00 +12°C° 0 mm 2 mps 762 mmHg 78%
    09:00 +13°C° 0 mm 2 mps 762 mmHg 74%
    10:00 +14°C° 0 mm 2 mps 761 mmHg 73%
    11:00 +14°C° 0 mm 2 mps 761 mmHg 72%
    12:00 +15°C° 0 mm 2 mps 761 mmHg 71%
    13:00 +14°C° 0.1 mm 3 mps 760 mmHg 74%
    14:00 +13°C° 0.1 mm 3 mps 759 mmHg 78%
    15:00 +13°C° 0.1 mm 3 mps 758 mmHg 82%
    16:00 +13°C° 0.1 mm 4 mps 758 mmHg 84%
    17:00 +13°C° 0.1 mm 4 mps 757 mmHg 87%
    18:00 +13°C° 0.1 mm 4 mps 757 mmHg 89%
    19:00 +13°C° 0.2 mm 3 mps 757 mmHg 91%
    20:00 +13°C° 0.2 mm 3 mps 756 mmHg 93%
    21:00 +14°C° 0.2 mm 2 mps 756 mmHg 94%
    22:00 +14°C° 0 mm 2 mps 756 mmHg 95%
    23:00 +14°C° 0 mm 1 mps 755 mmHg 96%

    Tomorrow, 23 October, Wednesday

    Time Temperature Precipitation Wind Pressure Humidity
    00:00 +15°C° 0 mm 1 mps 755 mmHg 97%
    01:00 +15°C° 0 mm 1 mps 755 mmHg 97%
    02:00 +15°C° 0 mm 2 mps 754 mmHg 97%
    03:00 +15°C° 0 mm 2 mps 754 mmHg 97%
    04:00 +14°C° 0.8 mm 3 mps 753 mmHg 96%
    05:00 +14°C° 0.8 mm 3 mps 753 mmHg 95%
    06:00 +15°C° 0.8 mm 4 mps 752 mmHg 95%
    07:00 +15°C° 1 mm 5 mps 752 mmHg 93%
    08:00 +16°C° 1 mm 5 mps 752 mmHg 91%
    09:00 +16°C° 1 mm 6 mps 751 mmHg 89%
    10:00 +17°C° 0 mm 6 mps 751 mmHg 85%
    11:00 +19°C° 0 mm 6 mps 750 mmHg 81%
    12:00 +20°C° 0 mm 7 mps 750 mmHg 77%
    13:00 +20°C° 0.2 mm 6 mps 750 mmHg 78%
    14:00 +19°C° 0.2 mm 4 mps 749 mmHg 79%
    15:00 +19°C° 0.2 mm 3 mps 749 mmHg 79%
    16:00 +18°C° 1.4 mm 2 mps 749 mmHg 83%
    17:00 +17°C° 1.4 mm 2 mps 749 mmHg 87%
    18:00 +16°C° 1.4 mm 1 mps 749 mmHg 91%
    19:00 +16°C° 0 mm 2 mps 749 mmHg 92%
    20:00 +15°C° 0 mm 2 mps 750 mmHg 93%
    21:00 +14°C° 0 mm 3 mps 750 mmHg 95%
    22:00 +14°C° 0 mm 3 mps 750 mmHg 93%
    23:00 +13°C° 0 mm 4 mps 751 mmHg 92%

    Day after tomorrow, 24 October, Thursday

    Time Temperature Precipitation Wind Pressure Humidity
    00:00 +13°C° 0 mm 4 mps 751 mmHg 91%
    01:00 +13°C° 0 mm 4 mps 751 mmHg 90%
    02:00 +13°C° 0 mm 5 mps 751 mmHg 88%
    03:00 +13°C° 0 mm 5 mps 752 mmHg 86%
    04:00 +13°C° 0 mm 5 mps 752 mmHg 87%
    05:00 +14°C° 0 mm 5 mps 753 mmHg 89%
    06:00 +14°C° 0 mm 5 mps 753 mmHg 90%
    07:00 +14°C° 0.3 mm 5 mps 754 mmHg 89%
    08:00 +14°C° 0.3 mm 6 mps 755 mmHg 89%
    09:00 +12°C° 0.3 mm 7 mps 755 mmHg 88%
    10:00 +14°C° 0.3 mm 5 mps 756 mmHg 85%
    11:00 +15°C° 0.3 mm 4 mps 756 mmHg 83%
    12:00 +16°C° 0.3 mm 3 mps 757 mmHg 80%
    13:00 +16°C° 1 mm 3 mps 757 mmHg 83%
    14:00 +15°C° 1 mm 4 mps 758 mmHg 86%
    15:00 +15°C° 1 mm 4 mps 758 mmHg 88%
    16:00 +16°C° 0.3 mm 3 mps 759 mmHg 88%
    17:00 +14°C° 0.3 mm 3 mps 759 mmHg 88%
    18:00 +15°C° 0.3 mm 2 mps 760 mmHg 88%
    19:00 +14°C° 0 mm 2 mps 761 mmHg 88%
    20:00 +14°C° 0 mm 1 mps 761 mmHg 89%
    21:00 +13°C° 0 mm 1 mps 762 mmHg 90%
    22:00 +13°C° 0 mm 1 mps 762 mmHg 90%
    23:00 +13°C° 0 mm 1 mps 763 mmHg 91%

    25 October, Friday

    Time Temperature Precipitation Wind Pressure Humidity
    00:00 +13°C° 0 mm 2 mps 763 mmHg 92%
    01:00 +13°C° 0 mm 2 mps 763 mmHg 92%
    02:00 +13°C° 0 mm 2 mps 763 mmHg 93%
    03:00 +13°C° 0 mm 2 mps 763 mmHg 93%
    04:00 +13°C° 0 mm 2 mps 763 mmHg 94%
    05:00 +13°C° 0 mm 2 mps 763 mmHg 95%
    06:00 +13°C° 0 mm 2 mps 763 mmHg 95%
    07:00 +14°C° 0 mm 2 mps 763 mmHg 92%
    08:00 +15°C° 0 mm 2 mps 763 mmHg 89%
    09:00 +16°C° 0 mm 2 mps 763 mmHg 86%
    10:00 +18°C° 0 mm 2 mps 763 mmHg 80%
    11:00 +19°C° 0 mm 2 mps 762 mmHg 74%
    12:00 +20°C° 0 mm 2 mps 762 mmHg 68%
    13:00 +21°C° 0 mm 2 mps 761 mmHg 67%
    14:00 +21°C° 0 mm 2 mps 761 mmHg 65%
    15:00 +21°C° 0 mm 2 mps 761 mmHg 63%
    16:00 +20°C° 0 mm 2 mps 761 mmHg 70%
    17:00 +18°C° 0 mm 2 mps 761 mmHg 76%
    18:00 +17°C° 0 mm 2 mps 761 mmHg 83%
    19:00 +16°C° 0 mm 2 mps 761 mmHg 84%
    20:00 +16°C° 0 mm 2 mps 761 mmHg 85%
    21:00 +15°C° 0 mm 2 mps 761 mmHg 86%
    22:00 +15°C° 0 mm 2 mps 761 mmHg 87%
    23:00 +14°C° 0 mm 1 mps 762 mmHg 87%

    26 October, Saturday

    Time Temperature Precipitation Wind Pressure Humidity
    00:00 +14°C° 0 mm 1 mps 762 mmHg 87%
    01:00 +14°C° 0 mm 1 mps 762 mmHg 88%
    02:00 +13°C° 0 mm 1 mps 761 mmHg 89%
    03:00 +12°C° 0 mm 0 mps 761 mmHg 89%
    04:00 +13°C° 0 mm 1 mps 761 mmHg 90%
    05:00 +13°C° 0 mm 1 mps 761 mmHg 90%
    06:00 +12°C° 0 mm 1 mps 761 mmHg 91%
    07:00 +14°C° 0 mm 1 mps 761 mmHg 86%
    08:00 +15°C° 0 mm 2 mps 761 mmHg 81%
    09:00 +16°C° 0 mm 2 mps 761 mmHg 75%
    10:00 +18°C° 0 mm 2 mps 761 mmHg 70%
    11:00 +19°C° 0 mm 2 mps 761 mmHg 64%
    12:00 +21°C° 0 mm 2 mps 761 mmHg 59%
    13:00 +21°C° 0 mm 2 mps 760 mmHg 58%
    14:00 +23°C° 0 mm 1 mps 760 mmHg 57%
    15:00 +23°C° 0 mm 1 mps 759 mmHg 56%
    16:00 +22°C° 0 mm 1 mps 759 mmHg 62%
    17:00 +20°C° 0 mm 1 mps 759 mmHg 68%
    18:00 +17°C° 0 mm 2 mps 759 mmHg 74%
    19:00 +17°C° 0 mm 2 mps 759 mmHg 74%
    20:00 +16°C° 0 mm 2 mps 759 mmHg 75%
    21:00 +16°C° 0 mm 2 mps 759 mmHg 76%
    22:00 +16°C° 0 mm 2 mps 759 mmHg 75%
    23:00 +15°C° 0 mm 2 mps 759 mmHg 75%

    27 October, Sunday

    Time Temperature Precipitation Wind Pressure Humidity
    00:00 +15°C° 0 mm 2 mps 759 mmHg 74%
    01:00 +14°C° 0 mm 2 mps 759 mmHg 74%
    02:00 +14°C° 0 mm 2 mps 758 mmHg 74%
    03:00 +14°C° 0 mm 2 mps 758 mmHg 75%
    04:00 +13°C° 0 mm 1 mps 758 mmHg 75%
    05:00 +13°C° 0 mm 1 mps 758 mmHg 76%
    06:00 +13°C° 0 mm 1 mps 758 mmHg 77%
    07:00 +14°C° 0 mm 1 mps 758 mmHg 73%
    08:00 +15°C° 0 mm 1 mps 758 mmHg 70%
    09:00 +18°C° 0 mm 1 mps 758 mmHg 67%
    10:00 +19°C° 0 mm 1 mps 758 mmHg 62%
    11:00 +21°C° 0 mm 1 mps 758 mmHg 57%
    12:00 +22°C° 0 mm 1 mps 758 mmHg 51%
    13:00 +22°C° 0 mm 1 mps 758 mmHg 53%
    14:00 +22°C° 0 mm 1 mps 758 mmHg 55%
    15:00 +22°C° 0 mm 1 mps 758 mmHg 57%
    16:00 +20°C° 0 mm 2 mps 758 mmHg 62%
    17:00 +19°C° 0 mm 2 mps 758 mmHg 66%
    18:00 +18°C° 0 mm 2 mps 758 mmHg 71%
    19:00 +17°C° 0 mm 2 mps 758 mmHg 72%
    20:00 +17°C° 0 mm 2 mps 758 mmHg 73%
    21:00 +18°C° 0 mm 1 mps 758 mmHg 74%
    22:00 +18°C° 0 mm 1 mps 758 mmHg 76%
    23:00 +16°C° 0 mm 1 mps 758 mmHg 78%

    28 October, Monday

    Time Temperature Precipitation Wind Pressure Humidity
    00:00 +16°C° 0 mm 2 mps 758 mmHg 80%
    01:00 +15°C° 0 mm 2 mps 758 mmHg 82%
    02:00 +15°C° 0 mm 2 mps 758 mmHg 84%
    03:00 +14°C° 0 mm 2 mps 757 mmHg 86%
    04:00 +14°C° 0 mm 2 mps 757 mmHg 88%
    05:00 +14°C° 0 mm 2 mps 757 mmHg 89%
    06:00 +14°C° 0 mm 2 mps 757 mmHg 91%
    07:00 +15°C° 0 mm 2 mps 757 mmHg 87%
    08:00 +16°C° 0 mm 2 mps 757 mmHg 83%
    09:00 +17°C° 0 mm 2 mps 757 mmHg 79%
    10:00 +19°C° 0 mm 2 mps 757 mmHg 72%
    11:00 +21°C° 0 mm 2 mps 757 mmHg 65%
    12:00 +23°C° 0 mm 2 mps 757 mmHg 57%
    13:00 +24°C° 0 mm 1 mps 757 mmHg 56%
    14:00 +24°C° 0 mm 1 mps 756 mmHg 55%
    15:00 +24°C° 0 mm 1 mps 756 mmHg 53%
    16:00 +22°C° 0 mm 1 mps 756 mmHg 60%
    17:00 +21°C° 0 mm 1 mps 756 mmHg 67%
    18:00 +18°C° 0 mm 2 mps 756 mmHg 74%
    19:00 +18°C° 0 mm 2 mps 756 mmHg 77%
    20:00 +17°C° 0 mm 2 mps 756 mmHg 80%
    21:00 +17°C° 0 mm 2 mps 756 mmHg 83%
    22:00 +17°C° 0 mm 2 mps 756 mmHg 83%
    23:00 +17°C° 0 mm 2 mps 756 mmHg 84%
    Show more